Hourly Weather Rachelany

Today, 15 July, Wednesday

Time Temperature Precipitation Wind Pressure Humidity
00:00 +12°C° 0 mm 1 mps 749 mmHg 93%
01:00 +12°C° 0 mm 1 mps 749 mmHg 93%
02:00 +12°C° 0 mm 1 mps 749 mmHg 94%
03:00 +12°C° 0 mm 1 mps 749 mmHg 94%
04:00 +12°C° 0 mm 1 mps 748 mmHg 95%
05:00 +12°C° 0 mm 1 mps 748 mmHg 95%
06:00 +14°C° 0 mm 1 mps 748 mmHg 89%
07:00 +15°C° 0 mm 1 mps 748 mmHg 83%
08:00 +18°C° 0 mm 1 mps 749 mmHg 78%
09:00 +20°C° 0 mm 1 mps 748 mmHg 73%
10:00 +21°C° 0 mm 1 mps 748 mmHg 68%
11:00 +22°C° 0 mm 1 mps 748 mmHg 63%
12:00 +23°C° 0.1 mm 1 mps 748 mmHg 60%
13:00 +23°C° 0.1 mm 1 mps 748 mmHg 58%
14:00 +24°C° 0.1 mm 1 mps 748 mmHg 56%
15:00 +24°C° 0 mm 1 mps 748 mmHg 56%
16:00 +24°C° 0 mm 1 mps 747 mmHg 57%
17:00 +24°C° 0 mm 1 mps 747 mmHg 57%
18:00 +22°C° 0 mm 1 mps 747 mmHg 64%
19:00 +21°C° 0 mm 1 mps 747 mmHg 71%
20:00 +20°C° 0 mm 1 mps 747 mmHg 78%
21:00 +18°C° 0 mm 1 mps 747 mmHg 81%
22:00 +16°C° 0 mm 2 mps 747 mmHg 83%
23:00 +15°C° 0 mm 2 mps 747 mmHg 86%

Tomorrow, 16 July, Thursday

Time Temperature Precipitation Wind Pressure Humidity
00:00 +14°C° 0 mm 2 mps 747 mmHg 86%
01:00 +14°C° 0 mm 2 mps 747 mmHg 87%
02:00 +13°C° 0 mm 2 mps 747 mmHg 87%
03:00 +13°C° 0 mm 2 mps 747 mmHg 88%
04:00 +13°C° 0 mm 2 mps 746 mmHg 90%
05:00 +13°C° 0 mm 2 mps 746 mmHg 92%
06:00 +15°C° 0 mm 2 mps 746 mmHg 86%
07:00 +17°C° 0 mm 2 mps 746 mmHg 80%
08:00 +19°C° 0 mm 2 mps 746 mmHg 74%
09:00 +20°C° 0.1 mm 2 mps 746 mmHg 70%
10:00 +22°C° 0.1 mm 3 mps 746 mmHg 67%
11:00 +24°C° 0.1 mm 3 mps 746 mmHg 63%
12:00 +24°C° 0.8 mm 3 mps 746 mmHg 65%
13:00 +24°C° 0.8 mm 3 mps 746 mmHg 66%
14:00 +24°C° 0.8 mm 3 mps 746 mmHg 68%
15:00 +24°C° 1.6 mm 3 mps 745 mmHg 72%
16:00 +23°C° 1.6 mm 2 mps 745 mmHg 76%
17:00 +21°C° 1.6 mm 2 mps 745 mmHg 80%
18:00 +20°C° 0.8 mm 2 mps 745 mmHg 85%
19:00 +20°C° 0.8 mm 1 mps 745 mmHg 89%
20:00 +18°C° 0.8 mm 1 mps 745 mmHg 94%
21:00 +18°C° 0.2 mm 1 mps 745 mmHg 94%
22:00 +18°C° 0.2 mm 1 mps 746 mmHg 94%
23:00 +16°C° 0.2 mm 0 mps 746 mmHg 94%

Day after tomorrow, 17 July, Friday

Time Temperature Precipitation Wind Pressure Humidity
00:00 +15°C° 0.2 mm 0 mps 746 mmHg 94%
01:00 +16°C° 0.2 mm 1 mps 746 mmHg 95%
02:00 +16°C° 0.2 mm 1 mps 746 mmHg 96%
03:00 +16°C° 0.4 mm 1 mps 746 mmHg 96%
04:00 +16°C° 0.4 mm 1 mps 746 mmHg 97%
05:00 +16°C° 0.4 mm 1 mps 746 mmHg 97%
06:00 +16°C° 1.1 mm 1 mps 746 mmHg 97%
07:00 +16°C° 1.1 mm 1 mps 747 mmHg 97%
08:00 +16°C° 1.1 mm 1 mps 747 mmHg 97%
09:00 +16°C° 0.3 mm 1 mps 747 mmHg 95%
10:00 +18°C° 0.3 mm 1 mps 747 mmHg 93%
11:00 +19°C° 0.3 mm 1 mps 747 mmHg 91%
12:00 +18°C° 0.5 mm 2 mps 747 mmHg 91%
13:00 +18°C° 0.5 mm 2 mps 747 mmHg 91%
14:00 +18°C° 0.5 mm 2 mps 747 mmHg 90%
15:00 +18°C° 0.9 mm 2 mps 747 mmHg 91%
16:00 +18°C° 0.9 mm 2 mps 747 mmHg 91%
17:00 +18°C° 0.9 mm 2 mps 747 mmHg 92%
18:00 +18°C° 0.3 mm 2 mps 747 mmHg 92%
19:00 +17°C° 0.3 mm 3 mps 747 mmHg 93%
20:00 +17°C° 0.3 mm 3 mps 747 mmHg 93%
21:00 +17°C° 0.1 mm 3 mps 748 mmHg 94%
22:00 +17°C° 0.1 mm 3 mps 748 mmHg 95%
23:00 +16°C° 0.1 mm 3 mps 748 mmHg 95%

18 July, Saturday

Time Temperature Precipitation Wind Pressure Humidity
00:00 +16°C° 0.2 mm 3 mps 748 mmHg 95%
01:00 +16°C° 0.2 mm 3 mps 748 mmHg 95%
02:00 +16°C° 0.2 mm 2 mps 748 mmHg 95%
03:00 +16°C° 0.2 mm 2 mps 748 mmHg 95%
04:00 +16°C° 0.2 mm 2 mps 748 mmHg 95%
05:00 +16°C° 0.2 mm 2 mps 748 mmHg 95%
06:00 +17°C° 0.1 mm 2 mps 748 mmHg 94%
07:00 +17°C° 0.1 mm 2 mps 748 mmHg 92%
08:00 +18°C° 0.1 mm 3 mps 748 mmHg 91%
09:00 +19°C° 0.1 mm 3 mps 748 mmHg 88%
10:00 +20°C° 0.1 mm 3 mps 748 mmHg 85%
11:00 +20°C° 0.1 mm 3 mps 748 mmHg 82%
12:00 +21°C° 0.9 mm 3 mps 748 mmHg 81%
13:00 +22°C° 0.9 mm 3 mps 748 mmHg 80%
14:00 +23°C° 0.9 mm 2 mps 748 mmHg 79%
15:00 +24°C° 0.5 mm 2 mps 748 mmHg 76%
16:00 +24°C° 0.5 mm 2 mps 748 mmHg 74%
17:00 +24°C° 0.5 mm 1 mps 748 mmHg 71%
18:00 +23°C° 0.8 mm 1 mps 748 mmHg 76%
19:00 +22°C° 0.8 mm 1 mps 747 mmHg 82%
20:00 +20°C° 0.8 mm 1 mps 747 mmHg 87%
21:00 +19°C° 0 mm 1 mps 747 mmHg 88%
22:00 +16°C° 0 mm 0 mps 748 mmHg 89%
23:00 +15°C° 0 mm 0 mps 748 mmHg 90%

19 July, Sunday

Time Temperature Precipitation Wind Pressure Humidity
00:00 +15°C° 0 mm 0 mps 748 mmHg 90%
01:00 +15°C° 0 mm 0 mps 748 mmHg 91%
02:00 +15°C° 0 mm 0 mps 747 mmHg 91%
03:00 +15°C° 0.1 mm 0 mps 748 mmHg 92%
04:00 +15°C° 0.1 mm 0 mps 748 mmHg 93%
05:00 +15°C° 0.1 mm 0 mps 748 mmHg 93%
06:00 +16°C° 0.1 mm 0 mps 747 mmHg 90%
07:00 +17°C° 0.1 mm 0 mps 747 mmHg 88%
08:00 +20°C° 0.1 mm 1 mps 747 mmHg 85%
09:00 +22°C° 0.4 mm 1 mps 747 mmHg 80%
10:00 +23°C° 0.4 mm 1 mps 747 mmHg 75%
11:00 +24°C° 0.4 mm 2 mps 747 mmHg 69%
12:00 +24°C° 0.4 mm 2 mps 747 mmHg 69%
13:00 +24°C° 0.4 mm 2 mps 747 mmHg 69%
14:00 +25°C° 0.4 mm 2 mps 747 mmHg 68%
15:00 +24°C° 0.4 mm 1 mps 746 mmHg 69%
16:00 +24°C° 0.4 mm 1 mps 746 mmHg 69%
17:00 +24°C° 0.4 mm 1 mps 746 mmHg 70%
18:00 +23°C° 0.4 mm 1 mps 746 mmHg 77%
19:00 +20°C° 0.4 mm 2 mps 746 mmHg 83%
20:00 +19°C° 0.4 mm 2 mps 746 mmHg 90%
21:00 +18°C° 0.1 mm 2 mps 746 mmHg 91%
22:00 +18°C° 0.1 mm 2 mps 746 mmHg 92%
23:00 +17°C° 0.1 mm 3 mps 746 mmHg 93%

20 July, Monday

Time Temperature Precipitation Wind Pressure Humidity
00:00 +17°C° 0.3 mm 3 mps 746 mmHg 94%
01:00 +16°C° 0.3 mm 2 mps 746 mmHg 95%
02:00 +16°C° 0.3 mm 2 mps 746 mmHg 96%
03:00 +16°C° 0.4 mm 2 mps 746 mmHg 96%
04:00 +16°C° 0.4 mm 2 mps 746 mmHg 96%
05:00 +16°C° 0.4 mm 2 mps 745 mmHg 96%
06:00 +16°C° 0.4 mm 2 mps 745 mmHg 96%
07:00 +16°C° 0.4 mm 2 mps 746 mmHg 96%
08:00 +17°C° 0.4 mm 2 mps 746 mmHg 95%
09:00 +17°C° 0.1 mm 2 mps 746 mmHg 94%
10:00 +18°C° 0.1 mm 2 mps 746 mmHg 93%
11:00 +18°C° 0.1 mm 2 mps 746 mmHg 91%
12:00 +19°C° 0.2 mm 2 mps 745 mmHg 88%
13:00 +20°C° 0.2 mm 2 mps 745 mmHg 84%
14:00 +21°C° 0.2 mm 2 mps 745 mmHg 80%
15:00 +21°C° 0.2 mm 2 mps 745 mmHg 79%
16:00 +21°C° 0.2 mm 2 mps 745 mmHg 79%
17:00 +21°C° 0.2 mm 3 mps 745 mmHg 78%
18:00 +20°C° 0.1 mm 3 mps 745 mmHg 83%
19:00 +20°C° 0.1 mm 3 mps 745 mmHg 87%
20:00 +19°C° 0.1 mm 3 mps 745 mmHg 91%
21:00 +18°C° 0 mm 3 mps 745 mmHg 92%
22:00 +17°C° 0 mm 4 mps 746 mmHg 94%
23:00 +15°C° 0 mm 4 mps 746 mmHg 95%
Show more